{"data":{"norad_id":63766,"epoch":"2026-09-20T14:37:36.835104Z","epoch_age_seconds":140399,"freshness":"FRESH","line1":"1 63766U 25089R   26263.60945411  .00010839  00000+0  40262-3 0  9998","line2":"2 63766  43.0002  24.8069 0001726 119.5879 240.5145 15.27595483 78762","mean_motion":15.27595483,"eccentricity":0.0001726,"inclination_deg":43.0002,"raan_deg":24.8069,"arg_perigee_deg":119.5879,"mean_anomaly_deg":240.5145,"bstar":0.00040262,"rev_number":7876,"period_min":94.265793269565,"perigee_km":481.81850204104,"apogee_km":484.18696747748,"semimajor_km":6861.1397347593,"source":"CELESTRAK","updated_at":"2026-09-21T09:00:35.095772Z"}}